This is the latest recevied weather packets stored in our database for station/object KD9DOE. If no packets are shown the sender has not sent any weather packets the latest 10 day(s).
| Time | Temp. | Humidity | Pressure | Rain* | Wind** | Luminosity | Snow |
|---|---|---|---|---|---|---|---|
| 1777219774 | 16.67° C | 63% | 1018.3 hPa | 0 mm | - | 391 W/m² | - |
| 1777219472 | 16.67° C | 63% | 1018.2 hPa | 0 mm | - | 327 W/m² | - |
| 1777219167 | 16.67° C | 64% | 1018.2 hPa | 0 mm | - | 329 W/m² | - |
| 1777218864 | 16.67° C | 64% | 1018.2 hPa | 0 mm | - | 428 W/m² | - |
| 1777218560 | 16.11° C | 66% | 1018.1 hPa | 0 mm | - | 547 W/m² | - |
| 1777218260 | 15.56° C | 67% | 1018.3 hPa | 0 mm | - | 397 W/m² | - |
| 1777217957 | 15.56° C | 67% | 1018.2 hPa | 0 mm | - | 414 W/m² | - |
| 1777217658 | 15° C | 69% | 1018 hPa | 0 mm | - | 320 W/m² | - |
| 1777217355 | 15° C | 71% | 1018.1 hPa | 0 mm | - | 312 W/m² | - |
| 1777217050 | 14.44° C | 70% | 1018.3 hPa | 0 mm | - | 363 W/m² | - |
| 1777216748 | 14.44° C | 70% | 1018.3 hPa | 0 mm | - | 274 W/m² | - |
| 1777216443 | 14.44° C | 70% | 1018.4 hPa | 0 mm | - | 299 W/m² | - |
| 1777216142 | 14.44° C | 72% | 1018.3 hPa | 0 mm | - | 319 W/m² | - |
| 1777215837 | 13.89° C | 71% | 1018.2 hPa | 0 mm | - | 318 W/m² | - |
| 1777215533 | 13.89° C | 73% | 1018.1 hPa | 0 mm | - | 296 W/m² | - |
| 1777215230 | 13.89° C | 72% | 1018.3 hPa | 0 mm | - | 280 W/m² | - |
| 1777214925 | 13.89° C | 73% | 1018.4 hPa | 0 mm | - | 273 W/m² | - |
| 1777214624 | 13.33° C | 73% | 1018.4 hPa | 0 mm | - | 329 W/m² | - |
| 1777214320 | 13.33° C | 73% | 1018.4 hPa | 0 mm | - | 275 W/m² | - |
| 1777214019 | 12.78° C | 74% | 1018.5 hPa | 0 mm | - | 315 W/m² | - |
| 1777213713 | 13.33° C | 74% | 1018.4 hPa | 0 mm | - | 293 W/m² | - |
| 1777213410 | 12.78° C | 75% | 1018.6 hPa | 0 mm | - | 297 W/m² | - |
| 1777213107 | 12.78° C | 75% | 1018.6 hPa | 0 mm | - | 273 W/m² | - |
| 1777212805 | 12.22° C | 76% | 1018.4 hPa | 0 mm | - | 256 W/m² | - |
| 1777212501 | 12.22° C | 76% | 1018.6 hPa | 0 mm | - | 213 W/m² | - |
* Rain latest hour (hover to see other rain measurements)
** Current wind speed in m/s (hover to see current wind gust speed)